User: anonymous   Login
Location: 相模原市立博物館
(35.5593°N, 139.3931°E)
Time: 14:39:10
(UTC+09:00)
Language:

DX 1 - Orbit

View from above orbital plane
View from above orbital plane
View from above satellite
View from above satellite

Ground track
Ground track

The orbit data is extracted from the following two-line orbital elements,

1 40071U 14037C   22221.88126233  .00000322  00000-0  47988-4 0  9996
2 40071  98.4025  93.2590 0009114 139.3425 220.8478 14.81930801437259
Epoch (UTC): 09 August 2022 21:09:01
Eccentricity: 0.0009114
inclination: 98.4025°
perigee height: 617 km
apogee height: 629 km
right ascension of ascending node: 93.2590°
argument of perigee: 139.3425°
revolutions per day: 14.81930801
mean anomaly at epoch: 220.8478°
orbit number at epoch: 43725

The dashed part of the orbit path shows where the satellite is in the earth's shadow,  

DLR